QPF
0.00 0.00 0.00 0.00 0.00 0.00 0.00 0.00 0.00 0.00 0.00 0.00 0.00 0.00 0.00 0.00 0.00 0.00 0.00 0.00 0.00 0.00 0.00 0.00 0.00 0.00 0.00 0.00 0.00 0.00 0.00 0.00 0.00 0.00 0.00 0.00 0.01 0.02 0.03 0.00 0.04 0.05 0.00
0.00 0.00 0.00 0.00 0.00 0.00 0.00 0.00 0.00 0.00 0.00 0.00 0.00 0.00 0.00 0.00 0.00 0.00 0.00 0.00 0.00 0.00 0.00 0.00 0.00 0.00 0.00 0.00 0.00 0.00 0.00 0.00 0.00 0.00 0.00 0.00 0.00 0.01 0.00 0.00 0.00 0.00 0.00
0.00 0.00 0.00 0.00 0.00 0.00 0.00 0.00 0.00 0.00 0.00 0.00 0.00 0.00 0.00 0.00 0.00 0.00 0.00 0.00 0.00 0.00 0.00 0.00 0.00 0.00 0.00 0.00 0.00 0.00 0.00 0.00 0.00 0.01 0.02 0.01 0.01 0.00 0.00 0.01 0.00 0.00 0.01
0.00 0.00 0.00 0.00 0.00 0.00 0.00 0.00 0.00 0.00 0.00 0.00 0.00 0.00 0.00 0.00 0.00 0.00 0.00 0.00 0.00 0.01 0.00 0.00 0.00 0.01 0.00 0.00 0.00 0.01 0.00 0.00 0.01 0.00 0.00 0.01 0.00 0.00 0.00 0.00 0.01 0.00 0.00
0.00 0.00 0.00 0.00 0.00 0.00 0.00 0.00 0.00 0.00 0.00 0.00 0.00 0.00 0.00 0.00 0.00 0.00 0.00 0.00 0.02 0.01 0.00 0.00 0.00 0.00 0.00 0.00 0.00 0.00 0.00 0.00 0.00 0.00 0.00 0.00 0.00 0.00 0.00 0.00 0.00 0.00 0.00
0.00 0.00 0.00 0.00 0.00 0.00 0.00 0.00 0.00 0.00 0.00 0.00 0.00 0.00 0.00 0.00 0.00 0.00 0.00 0.00 0.00 0.00 0.00 0.00 0.00 0.00 0.00 0.00 0.00 0.00 0.00 0.00 0.00 0.00 0.00 0.00 0.00 0.00 0.00 0.00 0.00 0.00 0.00
0.00 0.00 0.00 0.00 0.00 0.00 0.00 0.00 0.00 0.00 0.00 0.00 0.00 0.00 0.00 0.00 0.00 0.00 0.00 0.00 0.00 0.00 0.00 0.00 0.00 0.00 0.00 0.00 0.00 0.00 0.00 0.00 0.00 0.00 0.00 0.00 0.00 0.00 0.00 0.00 0.00 0.00 0.00
0.00 0.00 0.00 0.00 0.00 0.00 0.00 0.00 0.00 0.00 0.00 0.00 0.00 0.00 0.00 0.00 0.00 0.00 0.00 0.00 0.00 0.00 0.00 0.00 0.00 0.00 0.00 0.00 0.00 0.00 0.00 0.00 0.00 0.00 0.00 0.00 0.00 0.00 0.00 0.00 0.00 0.00 0.00
0.00 0.00 0.00 0.00 0.00 0.00 0.00 0.00 0.00 0.00 0.00 0.00 0.00 0.00 0.00 0.00 0.00 0.00 0.00 0.00 0.00 0.01 0.01 0.00 0.00 0.00 0.00 0.00 0.00 0.00 0.00 0.00 0.00 0.00 0.00 0.00 0.00 0.00 0.00 0.04 0.04 0.01 0.01
0.00 0.00 0.00 0.00 0.00 0.00 0.00 0.00 0.00 0.00 0.00 0.00 0.00 0.00 0.00 0.00 0.00 0.00 0.00 0.00 0.00 0.00 0.00 0.00 0.00 0.00 0.00 0.00 0.00 0.00 0.00 0.00 0.00 0.00 0.00 0.00 0.00 0.02 0.02 0.02 0.06 0.09 0.03
0.00 0.00 0.00 0.00 0.00 0.00 0.00 0.00 0.00 0.00 0.00 0.00 0.00 0.00 0.00 0.00 0.00 0.00 0.00 0.00 0.00 0.00 0.00 0.00 0.00 0.00 0.00 0.00 0.00 0.00 0.00 0.00 0.00 0.00 0.00 0.00 0.00 0.00 0.00 0.00 0.03 0.06 0.06
0.00 0.00 0.00 0.00 0.00 0.00 0.00 0.00 0.00 0.00 0.00 0.00 0.00 0.00 0.00 0.00 0.00 0.00 0.00 0.00 0.00 0.00 0.00 0.00 0.00 0.00 0.00 0.00 0.00 0.00 0.00 0.00 0.00 0.00 0.00 0.00 0.00 0.00 0.00 0.00 0.02 0.05 0.04
0.00 0.00 0.00 0.00 0.00 0.00 0.00 0.00 0.00 0.00 0.00 0.00 0.00 0.00 0.00 0.00 0.00 0.00 0.00 0.00 0.00 0.00 0.00 0.00 0.00 0.00 0.00 0.00 0.00 0.00 0.00 0.00 0.00 0.00 0.00 0.00 0.00 0.01 0.07 0.05 0.12 0.02 0.01
0.00 0.00 0.00 0.00 0.00 0.00 0.00 0.00 0.00 0.00 0.00 0.00 0.00 0.00 0.00 0.00 0.00 0.00 0.00 0.00 0.00 0.00 0.00 0.00 0.00 0.00 0.00 0.00 0.00 0.00 0.00 0.00 0.00 0.00 0.00 0.00 0.00 0.00 0.01 0.00 0.00 0.00 0.00
0.00 0.00 0.00 0.00 0.00 0.00 0.00 0.00 0.00 0.00 0.00 0.00 0.00 0.00 0.00 0.00 0.00 0.00 0.00 0.00 0.00 0.00 0.00 0.00 0.00 0.00 0.00 0.00 0.00 0.00 0.00 0.00 0.00 0.00 0.00 0.01 0.02 0.00 0.00 0.00 0.00 0.00 0.00
0.00 0.00 0.00 0.00 0.00 0.00 0.00 0.00 0.00 0.00 0.00 0.00 0.00 0.00 0.00 0.00 0.00 0.00 0.00 0.00 0.00 0.00 0.00 0.00 0.00 0.00 0.00 0.00 0.01 0.00 0.01 0.02 0.03 0.06 0.03 0.00 0.00 0.00 0.00 0.02 0.01 0.00 0.00
0.00 0.00 0.00 0.00 0.00 0.00 0.00 0.00 0.00 0.00 0.00 0.00 0.00 0.00 0.00 0.00 0.00 0.00 0.00 0.00 0.00 0.00 0.00 0.00 0.00 0.00 0.01 0.01 0.02 0.07 0.09 0.09 0.03 0.02 0.00 0.00 0.00 0.00 0.00 0.00 0.00 0.00 0.00
0.00 0.00 0.00 0.00 0.00 0.00 0.00 0.00 0.00 0.00 0.00 0.00 0.00 0.00 0.00 0.00 0.00 0.00 0.00 0.00 0.00 0.00 0.00 0.00 0.03 0.12 0.11 0.25 0.31 0.21 0.12 0.12 0.02 0.00 0.00 0.00 0.00 0.00 0.00 0.00 0.00 0.00 0.00
0.00 0.00 0.00 0.00 0.00 0.00 0.00 0.00 0.01 0.00 0.00 0.00 0.00 0.00 0.00 0.00 0.00 0.00 0.00 0.00 0.02 0.00 0.06 0.14 0.48 0.52 0.54 0.40 0.32 0.20 0.07 0.05 0.02 0.00 0.00 0.00 0.00 0.00 0.00 0.00 0.00 0.00 0.00
0.00 0.00 0.00 0.00 0.00 0.00 0.00 0.00 0.00 0.00 0.00 0.00 0.00 0.00 0.00 0.00 0.00 0.00 0.00 0.02 0.05 0.11 0.31 0.53 0.47 0.35 0.17 0.10 0.11 0.10 0.03 0.03 0.01 0.00 0.00 0.00 0.00 0.00 0.00 0.00 0.00 0.00 0.00
0.00 0.00 0.00 0.00 0.00 0.00 0.00 0.00 0.00 0.00 0.00 0.00 0.00 0.00 0.00 0.00 0.00 0.00 0.00 0.01 0.16 0.24 0.23 0.23 0.13 0.11 0.09 0.08 0.07 0.07 0.04 0.01 0.00 0.00 0.00 0.00 0.00 0.00 0.00 0.00 0.00 0.00 0.00
0.00 0.00 0.00 0.00 0.01 0.01 0.00 0.00 0.00 0.00 0.00 0.00 0.00 0.00 0.00 0.00 0.00 0.00 0.00 0.02 0.05 0.03 0.08 0.12 0.12 0.04 0.01 0.01 0.01 0.00 0.00 0.00 0.00 0.00 0.00 0.00 0.00 0.00 0.00 0.00 0.00 0.00 0.00
0.00 0.00 0.00 0.01 0.06 0.05 0.02 0.01 0.00 0.00 0.00 0.00 0.00 0.00 0.00 0.00 0.00 0.00 0.01 0.04 0.02 0.01 0.02 0.04 0.03 0.02 0.04 0.03 0.00 0.00 0.00 0.00 0.00 0.00 0.00 0.00 0.00 0.00 0.00 0.00 0.00 0.00 0.00
0.00 0.00 0.01 0.03 0.09 0.13 0.12 0.10 0.06 0.08 0.12 0.08 0.03 0.03 0.07 0.07 0.09 0.06 0.01 0.01 0.00 0.00 0.00 0.00 0.00 0.01 0.03 0.01 0.00 0.00 0.00 0.00 0.00 0.00 0.00 0.00 0.00 0.00 0.00 0.00 0.00 0.00 0.00
0.00 0.00 0.00 0.01 0.09 0.15 0.24 0.28 0.28 0.27 0.26 0.25 0.17 0.12 0.05 0.03 0.02 0.00 0.00 0.00 0.00 0.00 0.00 0.00 0.00 0.00 0.00 0.00 0.00 0.00 0.00 0.00 0.00 0.00 0.00 0.00 0.00 0.00 0.00 0.00 0.00 0.00 0.00
0.00 0.00 0.00 0.00 0.07 0.13 0.11 0.17 0.13 0.10 0.18 0.16 0.14 0.07 0.01 0.00 0.00 0.00 0.00 0.00 0.00 0.00 0.00 0.00 0.00 0.00 0.00 0.00 0.00 0.00 0.00 0.00 0.00 0.00 0.00 0.00 0.00 0.00 0.00 0.00 0.00 0.00 0.00
MSLP
1009.65 1010.31 1010.77 1011.43 1012.27 1012.91 1013.64 1014.19 1014.77 1015.41 1015.96 1016.55 1016.91 1017.20 1017.43 1017.50 1017.53 1017.56 1017.59 1017.50 1017.57 1017.78 1017.81 1017.98 1018.23 1018.19 1018.39 1018.63 1018.91 1018.89 1018.64 1018.60 1018.27 1018.18 1017.64 1017.93 1017.90 1017.55 1017.39 1017.02 1017.09 1017.32 1017.48
1009.50 1009.87 1010.35 1010.98 1011.70 1012.37 1013.04 1013.89 1014.43 1015.12 1015.72 1016.12 1016.39 1016.70 1017.01 1017.09 1016.93 1017.06 1017.21 1017.22 1017.31 1017.58 1017.72 1017.98 1018.29 1018.03 1018.35 1018.63 1019.01 1018.88 1018.93 1018.83 1018.56 1018.75 1018.89 1018.91 1018.56 1018.28 1017.63 1017.34 1017.41 1017.26 1017.41
1008.46 1009.11 1009.64 1010.29 1011.22 1011.95 1012.48 1013.20 1013.90 1014.60 1015.26 1015.70 1016.23 1016.60 1016.91 1017.01 1017.03 1017.12 1017.09 1016.91 1017.07 1017.25 1017.60 1017.78 1018.12 1018.27 1018.53 1018.66 1018.74 1018.76 1018.92 1019.14 1018.97 1018.76 1018.97 1019.25 1019.10 1018.79 1018.35 1017.96 1017.76 1017.46 1017.47
1007.45 1008.11 1008.93 1009.62 1010.19 1010.89 1011.78 1012.40 1013.25 1014.09 1014.84 1015.34 1015.85 1016.22 1016.55 1016.91 1016.91 1016.88 1016.82 1016.75 1016.88 1016.99 1017.37 1017.58 1017.87 1018.14 1018.28 1018.49 1018.55 1018.76 1018.87 1018.99 1019.25 1019.00 1018.75 1018.75 1018.74 1018.98 1018.99 1018.17 1017.77 1017.74 1017.45
1006.49 1007.24 1007.79 1008.38 1009.26 1010.31 1011.08 1011.84 1012.61 1013.51 1014.18 1014.80 1015.28 1015.74 1016.15 1016.43 1016.59 1016.79 1016.88 1016.91 1016.94 1016.99 1017.02 1017.30 1017.60 1017.87 1017.92 1018.18 1018.35 1018.49 1018.76 1018.83 1018.99 1018.99 1018.77 1018.68 1018.87 1018.77 1019.04 1018.90 1018.37 1017.95 1017.33
1005.76 1006.22 1006.99 1008.17 1009.10 1009.99 1010.76 1011.51 1012.35 1012.96 1013.64 1014.22 1014.79 1015.29 1015.75 1016.13 1016.55 1016.80 1016.96 1016.97 1017.01 1017.05 1016.87 1016.92 1017.28 1017.60 1017.58 1017.88 1017.98 1018.07 1018.32 1018.52 1018.72 1018.88 1018.88 1018.91 1018.95 1018.90 1018.99 1019.04 1018.38 1018.04 1017.16
1005.06 1005.94 1006.86 1007.82 1008.67 1009.38 1010.25 1011.12 1011.94 1012.63 1013.12 1013.75 1014.33 1014.84 1015.31 1015.78 1016.11 1016.41 1016.66 1016.89 1016.98 1016.92 1016.69 1016.68 1016.93 1017.32 1017.22 1017.30 1017.61 1017.93 1018.09 1018.27 1018.45 1018.56 1018.72 1018.80 1018.75 1018.70 1018.73 1018.84 1018.54 1018.29 1017.45
1003.91 1004.81 1005.55 1006.52 1007.53 1008.58 1009.59 1010.55 1011.42 1012.13 1012.68 1013.21 1013.80 1014.38 1014.86 1015.34 1015.67 1015.87 1016.09 1016.38 1016.50 1016.35 1016.37 1016.41 1016.41 1016.55 1016.74 1016.88 1017.14 1017.59 1017.82 1018.03 1018.11 1018.26 1018.33 1018.33 1018.32 1018.33 1018.40 1018.51 1018.67 1018.23 1017.92
1003.11 1004.01 1004.98 1005.78 1006.77 1007.75 1008.53 1009.43 1010.59 1011.46 1012.09 1012.61 1013.26 1013.77 1014.31 1014.74 1015.12 1015.39 1015.64 1015.91 1016.00 1016.06 1016.09 1015.76 1015.99 1015.99 1016.30 1016.65 1017.04 1017.35 1017.52 1017.63 1017.74 1017.86 1017.97 1018.03 1017.71 1017.74 1017.88 1017.95 1018.21 1018.38 1018.51
1002.57 1003.69 1004.50 1005.12 1006.00 1006.99 1008.04 1009.12 1009.91 1010.51 1011.18 1011.98 1012.57 1013.04 1013.53 1014.10 1014.52 1014.85 1015.17 1015.34 1015.42 1015.67 1015.68 1015.59 1015.66 1015.86 1016.07 1016.43 1016.76 1017.02 1017.19 1017.43 1017.49 1017.51 1017.59 1017.58 1017.46 1017.41 1017.57 1017.73 1018.02 1018.10 1018.33
1002.31 1003.06 1003.84 1004.42 1005.31 1006.42 1007.39 1008.40 1009.42 1010.20 1010.88 1011.41 1011.91 1012.46 1013.06 1013.59 1013.98 1014.34 1014.55 1014.77 1014.93 1015.04 1015.12 1015.15 1015.26 1015.42 1015.62 1015.96 1016.33 1016.56 1016.75 1016.96 1016.98 1016.96 1017.02 1017.00 1017.02 1017.01 1017.05 1017.34 1017.67 1017.93 1018.06
1001.91 1002.67 1003.45 1004.33 1005.26 1006.11 1007.07 1007.88 1008.87 1009.58 1010.15 1010.69 1011.33 1011.76 1012.30 1012.91 1013.35 1013.71 1013.88 1014.21 1014.50 1014.69 1014.77 1014.75 1014.89 1015.00 1015.17 1015.43 1015.69 1015.97 1016.06 1016.26 1016.45 1016.43 1016.56 1016.56 1016.54 1016.63 1016.67 1016.91 1017.16 1017.21 1017.22
1002.33 1002.78 1003.60 1004.24 1004.92 1005.86 1006.78 1007.59 1008.30 1008.94 1009.73 1010.37 1010.92 1011.42 1011.81 1012.25 1012.65 1013.00 1013.39 1013.71 1013.94 1014.09 1014.35 1014.49 1014.58 1014.75 1014.89 1015.07 1015.22 1015.37 1015.46 1015.57 1015.65 1015.76 1015.91 1015.93 1016.08 1016.24 1016.26 1016.32 1016.57 1016.45 1016.43
1002.84 1003.08 1003.72 1004.26 1004.83 1005.54 1006.23 1007.03 1007.86 1008.53 1009.21 1009.91 1010.48 1010.85 1011.14 1011.50 1011.93 1012.43 1012.85 1013.15 1013.43 1013.73 1013.89 1014.02 1014.19 1014.37 1014.57 1014.66 1014.75 1014.91 1015.05 1015.10 1015.06 1014.99 1015.02 1015.15 1015.31 1015.39 1015.51 1015.62 1015.65 1015.79 1015.99
1002.88 1003.22 1003.63 1004.10 1004.50 1005.18 1005.84 1006.58 1007.39 1008.03 1008.63 1009.36 1009.92 1010.14 1010.41 1010.82 1011.31 1011.75 1012.11 1012.51 1012.85 1013.01 1013.28 1013.41 1013.55 1013.70 1013.93 1014.08 1014.22 1014.30 1014.46 1014.58 1014.57 1014.53 1014.54 1014.49 1014.30 1014.41 1014.50 1014.83 1014.95 1015.18 1015.37
1002.79 1002.83 1003.10 1003.69 1004.16 1004.59 1005.09 1005.87 1006.62 1007.27 1007.96 1008.66 1009.02 1009.46 1009.95 1010.30 1010.66 1011.10 1011.55 1011.93 1012.15 1012.38 1012.65 1012.74 1012.92 1013.08 1013.19 1013.37 1013.45 1013.59 1013.82 1014.00 1014.27 1014.39 1014.32 1014.07 1014.01 1014.00 1014.09 1014.17 1014.24 1014.43 1014.67
1002.95 1002.89 1003.05 1003.05 1003.40 1004.00 1004.40 1005.10 1005.75 1006.56 1007.25 1007.81 1008.34 1008.81 1009.21 1009.63 1010.01 1010.39 1010.95 1011.29 1011.46 1011.75 1011.93 1012.04 1012.26 1012.37 1012.59 1012.79 1013.07 1013.29 1013.52 1013.93 1014.07 1014.28 1014.47 1014.32 1014.11 1014.12 1014.18 1014.10 1014.05 1014.05 1014.02
1002.86 1002.92 1002.88 1003.09 1003.03 1003.26 1003.77 1004.31 1005.19 1005.87 1006.46 1007.11 1007.64 1008.09 1008.50 1008.94 1009.35 1009.77 1010.09 1010.39 1010.77 1011.14 1011.37 1011.48 1011.71 1012.00 1012.45 1012.97 1013.73 1014.07 1014.12 1014.05 1014.21 1014.17 1014.32 1014.39 1014.47 1014.23 1014.01 1013.89 1013.79 1013.69 1013.57
1003.36 1003.01 1002.65 1002.74 1003.09 1003.40 1003.56 1004.15 1004.98 1005.44 1006.08 1006.55 1007.01 1007.43 1007.86 1008.27 1008.68 1008.99 1009.24 1009.55 1010.07 1010.41 1010.71 1010.88 1011.41 1012.75 1014.20 1014.55 1015.47 1014.56 1014.61 1014.46 1014.27 1014.21 1014.32 1014.48 1014.64 1014.31 1013.98 1013.90 1013.89 1013.66 1013.43
1004.07 1003.49 1003.05 1002.79 1002.85 1003.17 1003.54 1004.09 1004.68 1005.16 1005.46 1005.82 1006.21 1006.75 1007.18 1007.60 1008.04 1008.37 1008.69 1008.92 1009.34 1009.79 1010.27 1010.89 1010.94 1011.67 1011.50 1012.29 1012.22 1014.32 1014.04 1014.34 1014.31 1013.97 1014.17 1014.24 1014.19 1014.10 1014.04 1013.96 1013.98 1013.74 1013.39
1004.80 1004.41 1004.02 1003.50 1003.02 1003.07 1003.39 1004.04 1004.41 1004.57 1004.54 1005.23 1005.82 1006.37 1006.79 1007.17 1007.54 1008.15 1008.57 1008.98 1009.40 1010.25 1010.53 1010.84 1011.29 1011.77 1011.83 1012.59 1012.54 1013.23 1013.85 1014.39 1014.25 1014.15 1014.19 1014.06 1013.88 1013.75 1013.62 1013.59 1013.64 1013.32 1012.93
1004.97 1005.14 1005.05 1004.59 1003.85 1003.81 1003.66 1004.15 1004.72 1004.86 1004.91 1005.27 1005.79 1006.41 1006.83 1007.28 1007.80 1008.39 1009.17 1009.50 1009.77 1010.40 1010.90 1011.33 1011.91 1012.16 1012.41 1012.50 1013.27 1013.62 1014.06 1014.52 1014.44 1014.36 1014.17 1013.85 1013.60 1013.49 1013.24 1013.10 1012.84 1012.70 1012.68
1005.61 1005.58 1005.59 1005.35 1005.02 1004.69 1004.00 1004.45 1005.04 1005.23 1005.24 1005.57 1006.21 1006.72 1007.24 1007.74 1008.16 1008.72 1009.50 1010.21 1010.57 1010.83 1011.25 1011.42 1012.66 1013.21 1013.40 1013.54 1013.93 1014.66 1014.59 1014.59 1014.39 1014.43 1013.92 1013.57 1013.25 1012.98 1012.73 1012.47 1012.30 1012.19 1012.15
1005.92 1006.07 1005.94 1005.88 1005.75 1005.57 1005.39 1005.55 1005.43 1005.47 1005.64 1006.30 1006.73 1007.27 1007.75 1008.25 1008.77 1009.21 1009.50 1010.01 1010.85 1011.40 1011.65 1011.89 1012.49 1013.45 1014.41 1014.67 1014.43 1014.76 1014.58 1014.26 1014.30 1014.22 1013.60 1013.29 1012.98 1012.70 1012.52 1012.20 1011.87 1011.73 1011.58
1006.15 1006.33 1006.39 1006.34 1005.99 1005.83 1006.15 1005.95 1006.18 1006.09 1006.84 1007.28 1007.18 1007.37 1007.78 1008.80 1009.50 1010.06 1010.59 1010.49 1010.96 1011.16 1011.59 1012.03 1012.47 1013.10 1014.00 1014.65 1014.17 1014.68 1014.29 1014.63 1014.32 1014.10 1013.69 1013.49 1013.00 1012.74 1012.46 1012.25 1011.87 1011.45 1011.13
1006.18 1006.27 1006.45 1006.25 1006.21 1005.98 1005.86 1005.96 1006.30 1006.53 1006.52 1007.87 1007.87 1008.03 1008.31 1008.93 1009.61 1010.11 1010.79 1011.10 1011.38 1011.56 1011.36 1011.62 1011.98 1012.63 1012.84 1013.36 1014.00 1014.31 1014.62 1014.41 1014.16 1014.03 1014.12 1013.71 1013.18 1012.94 1012.67 1012.48 1011.98 1011.51 1011.12
Thickness
5810 5805 5803 5801 5795 5791 5786 5782 5778 5773 5770 5767 5764 5763 5762 5763 5762 5767 5771 5774 5776 5775 5778 5779 5778 5779 5779 5777 5776 5777 5779 5778 5779 5780 5786 5783 5785 5785 5785 5786 5784 5782 5780
5808 5807 5806 5803 5798 5793 5789 5783 5781 5776 5773 5771 5769 5766 5764 5765 5769 5771 5772 5773 5774 5773 5776 5777 5775 5777 5778 5778 5774 5774 5775 5777 5779 5771 5770 5761 5774 5780 5786 5787 5786 5786 5782
5812 5811 5810 5807 5802 5795 5791 5786 5783 5780 5776 5774 5770 5768 5766 5766 5766 5768 5770 5773 5773 5774 5773 5774 5773 5771 5774 5775 5776 5776 5773 5770 5774 5775 5765 5758 5758 5768 5780 5784 5785 5788 5786
5825 5821 5815 5810 5808 5803 5799 5794 5788 5784 5779 5776 5772 5769 5764 5761 5766 5769 5773 5774 5773 5774 5774 5774 5774 5771 5773 5775 5776 5776 5774 5772 5766 5772 5775 5774 5773 5764 5764 5781 5784 5788 5788
5834 5826 5823 5820 5817 5810 5804 5799 5794 5788 5784 5780 5777 5774 5769 5769 5769 5768 5768 5769 5771 5773 5774 5772 5774 5773 5774 5776 5775 5775 5773 5773 5771 5770 5772 5772 5771 5771 5766 5764 5774 5784 5790
5839 5837 5832 5823 5815 5812 5806 5802 5795 5790 5787 5784 5779 5775 5771 5770 5766 5765 5764 5766 5768 5771 5773 5774 5774 5774 5775 5775 5775 5777 5776 5774 5773 5771 5770 5768 5766 5765 5765 5764 5772 5777 5788
5841 5836 5828 5820 5816 5812 5809 5804 5797 5791 5789 5784 5781 5777 5774 5770 5768 5767 5765 5764 5764 5767 5773 5776 5776 5775 5775 5774 5772 5773 5774 5773 5771 5770 5767 5766 5767 5768 5768 5765 5767 5769 5782
5847 5843 5841 5833 5826 5819 5812 5807 5800 5794 5791 5787 5782 5779 5776 5773 5770 5770 5769 5767 5767 5770 5775 5776 5776 5776 5775 5775 5773 5772 5772 5772 5771 5769 5769 5769 5769 5769 5768 5766 5763 5764 5769
5849 5845 5842 5838 5832 5826 5819 5814 5804 5798 5794 5790 5786 5782 5778 5775 5773 5772 5772 5770 5770 5772 5773 5775 5777 5777 5775 5774 5774 5772 5772 5772 5772 5771 5769 5767 5770 5771 5770 5769 5767 5762 5754
5852 5845 5841 5840 5836 5831 5823 5815 5809 5803 5799 5794 5791 5788 5785 5780 5778 5776 5773 5772 5774 5773 5774 5775 5776 5776 5776 5775 5772 5771 5771 5769 5769 5770 5768 5767 5768 5768 5768 5767 5762 5762 5757
5851 5847 5844 5844 5841 5834 5827 5819 5811 5805 5799 5796 5793 5789 5786 5783 5780 5777 5776 5777 5776 5777 5777 5777 5777 5777 5777 5776 5772 5771 5771 5769 5770 5771 5770 5768 5768 5767 5767 5764 5760 5756 5756
5849 5849 5846 5842 5836 5831 5825 5819 5813 5807 5804 5799 5795 5792 5789 5785 5783 5780 5780 5780 5778 5778 5777 5779 5778 5778 5778 5777 5775 5773 5774 5772 5770 5770 5769 5768 5769 5765 5764 5761 5758 5757 5757
5839 5841 5842 5838 5832 5829 5822 5817 5814 5809 5805 5799 5795 5792 5789 5787 5786 5784 5783 5780 5779 5780 5779 5777 5776 5776 5776 5776 5776 5775 5775 5775 5774 5772 5771 5770 5768 5764 5764 5762 5759 5759 5759
5832 5831 5834 5836 5830 5828 5823 5818 5813 5810 5805 5799 5795 5792 5791 5791 5788 5786 5784 5782 5779 5777 5777 5778 5778 5777 5777 5777 5777 5775 5774 5774 5775 5775 5774 5771 5769 5768 5766 5765 5763 5759 5756
5829 5829 5828 5831 5830 5827 5824 5820 5815 5811 5807 5800 5796 5795 5795 5793 5790 5787 5785 5783 5781 5780 5778 5776 5776 5776 5776 5775 5773 5774 5773 5771 5771 5773 5774 5774 5774 5773 5772 5768 5764 5761 5756
5830 5834 5834 5832 5829 5829 5828 5822 5818 5814 5811 5803 5800 5799 5796 5793 5791 5788 5785 5783 5781 5780 5778 5777 5776 5774 5776 5775 5774 5773 5771 5769 5767 5765 5767 5771 5772 5771 5770 5768 5767 5764 5757
5822 5824 5828 5832 5833 5830 5832 5825 5821 5817 5812 5807 5804 5801 5799 5796 5793 5791 5786 5783 5782 5781 5778 5777 5776 5775 5775 5772 5769 5768 5767 5762 5762 5759 5757 5758 5763 5762 5762 5762 5762 5760 5757
5816 5819 5823 5825 5833 5834 5833 5831 5823 5818 5813 5808 5806 5804 5802 5798 5796 5792 5789 5787 5784 5780 5778 5776 5775 5772 5769 5762 5755 5753 5751 5752 5751 5752 5750 5749 5750 5752 5755 5755 5755 5754 5751
5808 5813 5819 5822 5819 5821 5823 5821 5816 5815 5811 5808 5806 5805 5804 5800 5798 5794 5792 5790 5785 5781 5778 5776 5771 5758 5746 5737 5728 5735 5737 5739 5742 5742 5742 5743 5742 5744 5747 5748 5747 5746 5743
5796 5801 5809 5816 5816 5816 5816 5812 5810 5809 5810 5811 5810 5807 5805 5802 5798 5796 5792 5790 5786 5781 5776 5768 5767 5753 5736 5723 5726 5725 5730 5731 5733 5738 5736 5736 5738 5740 5741 5741 5738 5737 5735
5780 5786 5789 5798 5805 5808 5809 5805 5804 5806 5813 5810 5808 5805 5803 5800 5797 5792 5787 5783 5777 5770 5766 5761 5757 5751 5744 5737 5739 5733 5728 5724 5727 5728 5729 5731 5733 5734 5735 5734 5731 5732 5733
5767 5769 5770 5775 5786 5792 5796 5795 5793 5798 5801 5801 5798 5794 5792 5790 5786 5781 5774 5771 5767 5760 5756 5751 5744 5742 5738 5736 5728 5726 5722 5716 5716 5718 5720 5724 5727 5727 5729 5729 5729 5727 5726
5749 5751 5753 5757 5762 5771 5780 5777 5781 5784 5788 5788 5784 5782 5780 5778 5776 5770 5764 5757 5754 5750 5745 5743 5730 5721 5719 5717 5712 5705 5708 5708 5710 5707 5714 5718 5720 5722 5724 5725 5724 5722 5721
5727 5729 5734 5739 5744 5752 5756 5758 5765 5770 5771 5770 5770 5769 5767 5764 5762 5760 5759 5753 5744 5737 5734 5730 5721 5710 5698 5694 5698 5697 5698 5703 5703 5703 5710 5711 5713 5716 5717 5718 5719 5718 5717
5713 5713 5714 5720 5727 5738 5737 5730 5742 5750 5747 5750 5757 5759 5759 5754 5748 5744 5741 5742 5736 5732 5727 5722 5714 5704 5691 5685 5690 5688 5691 5689 5692 5694 5699 5701 5705 5707 5709 5708 5710 5711 5712
5695 5697 5700 5704 5712 5720 5730 5733 5734 5736 5736 5729 5737 5742 5746 5744 5739 5738 5732 5728 5724 5720 5722 5717 5712 5703 5696 5685 5682 5680 5678 5680 5683 5687 5689 5692 5697 5698 5699 5698 5701 5702 5704